Date,TemperatureHighF,TemperatureAvgF,TemperatureLowF,DewpointHighF,DewpointAvgF,DewpointLowF,HumidityHigh,HumidityAvg,HumidityLow,PressureMaxIn,PressureMinIn,WindSpeedMaxMPH,WindSpeedAvgMPH,GustSpeedMaxMPH,PrecipitationSumIn
2013-2-1,41.2,33.8,24.4,23.3,7.4,-4.3,75,36,21,30.36,29.85,13,1,13,0.00
2013-2-2,44.1,32.8,17.6,24.4,5.7,-1.4,62,33,20,30.39,30.00,6,0,6,0.00
2013-2-3,50.7,41.3,33.1,34.2,22.1,14.0,88,50,27,30.00,29.83,6,0,6,0.00
2013-2-4,49.6,37.6,25.0,22.3,15.4,8.6,75,44,21,30.12,29.97,6,0,6,0.00
2013-2-5,60.3,45.0,35.8,29.9,24.7,21.2,75,47,24,29.97,29.85,6,0,6,0.00
2013-2-6,64.6,44.0,29.1,40.8,23.3,13.4,97,54,16,30.27,29.94,5,0,5,0.00
2013-2-7,47.7,40.4,33.8,42.5,31.8,21.2,98,73,44,30.30,29.97,5,0,5,0.47
2013-2-8,57.2,45.8,38.8,42.6,36.0,19.5,98,73,37,30.03,29.80,7,0,7,0.44
2013-2-9,54.3,39.3,27.0,30.5,17.0,8.2,90,46,18,30.33,30.03,6,0,6,0.00
2013-2-10,54.1,38.4,23.4,39.6,18.7,9.7,92,52,18,30.48,30.18,5,0,5,0.04
2013-2-11,61.7,53.1,41.7,60.8,52.0,39.8,98,96,87,30.18,29.88,5,0,0,0.04
2013-2-12,63.0,52.4,43.7,54.3,30.4,16.4,98,50,18,30.06,29.88,6,0,6,0.00
2013-2-13,47.7,45.7,40.1,47.1,43.6,31.6,98,93,54,29.94,29.62,0,0,0,0.37
2013-2-14,53.8,40.8,30.6,42.0,28.4,17.3,98,69,27,30.03,29.83,7,0,7,0.00
2013-2-15,65.8,43.5,27.7,43.5,27.0,17.0,98,63,18,30.06,29.88,6,0,6,0.00
2013-2-16,45.5,36.5,30.0,35.3,30.5,22.1,98,82,46,29.94,29.80,5,0,5,0.35
2013-2-17,39.4,29.5,21.9,26.6,9.7,-1.1,87,48,21,30.24,29.91,8,0,8,0.00
2013-2-18,53.2,33.6,16.0,22.7,13.0,6.7,88,50,18,30.39,30.21,6,0,6,0.00
2013-2-19,50.4,39.4,28.6,49.8,35.7,18.4,98,87,51,30.21,29.83,8,0,8,0.16
2013-2-20,55.9,39.0,25.9,35.1,19.5,8.5,98,56,17,30.12,29.94,8,0,8,0.00
2013-2-21,57.4,40.8,24.3,20.2,12.4,7.9,72,35,17,30.24,30.09,5,0,5,0.00
2013-2-22,42.4,36.4,32.7,36.2,30.1,11.9,98,81,29,30.33,30.12,4,0,0,0.31
2013-2-23,44.2,40.5,36.7,43.7,40.0,36.0,98,98,98,30.12,29.80,0,0,0,0.55
2013-2-24,65.7,49.2,35.8,50.7,33.0,15.4,98,63,19,30.03,29.77,9,0,9,0.04
2013-2-25,43.2,37.3,32.7,29.6,17.1,11.1,82,46,29,30.21,30.03,5,0,5,0.00
2013-2-26,55.6,44.1,34.3,54.8,38.1,17.1,98,82,45,30.12,29.56,5,0,5,0.73
2013-2-27,63.1,49.6,40.6,45.2,35.8,24.3,98,67,24,29.77,29.62,6,0,6,0.00
2013-2-28,51.6,41.4,32.5,40.8,27.0,16.2,98,63,26,29.83,29.68,5,0,5,0.00